Location: Praha
(50.0830°N, 14.4670°E)
Time: 07:41:14
(UTC+01:00)

Envisat - Visible Passes

Search period start: 30 November 2023 00:00
Search period end: 10 December 2023 00:00
Orbit: 762 x 764 km, 98.3° (Epoch: 29 November)

Date Brightness Start Highest point End Pass type
(mag) Time Alt. Az. Time Alt. Az. Time Alt. Az.
30 Nov 5.6 04:05:34 10° N 04:05:42 11° N 04:05:42 11° N visible
01 Dec 5.3 05:07:58 10° N 05:08:04 10° N 05:08:04 10° N visible
02 Dec 5.5 04:30:13 10° N 04:30:17 10° N 04:30:17 10° N visible
